Location: Burbank
(38.7788°N, 114.0429°W)
Time: 14:10:54
(UTC+00:00)

Injun/Solrad 3 - Pass Details

Date: 17 May 2026
Orbit: 867 x 989 km, 66.8° (Epoch: 8 June)

Event Time Altitude Azimuth Distance (km) Brightness Sun altitude
Rises 20:59:39 0° 165° (SSE) 3,487 11.1 63.1°
Reaches altitude 10° 21:02:46 10° 149° (SSE) 2,572 10.4 62.6°
Maximum altitude 21:06:57 20° 104° (ESE) 1,985 9.7 61.9°
Drops below altitude 10° 21:11:13 10° 59° (ENE) 2,644 10.1 61.3°
Sets 21:14:27 0° 44° (NE) 3,616 10.7 60.7°
